Location: Beekmeers
(50.8953°N, 3.6968°E)
Time: 06:56:02
(UTC+00:00)

Aureole 3 - Pass Details

Date: 23 May 2024
Orbit: 378 x 1127 km, 82.5° (Epoch: 19 June)

Event Time Altitude Azimuth Distance (km) Brightness Sun altitude
Exits shadow 01:10:55 34° 248° (WSW) 653 3.3 -15.8°
Maximum altitude 01:11:36 40° 285° (WNW) 574 3.3 -15.8°
Drops below altitude 10° 01:14:29 10° 357° (N) 1,431 6.5 -15.6°
Sets 01:16:37 0° 5° (N) 2,336 8.0 -15.5°
